Time,TemperatureF,DewpointF,PressureIn,WindDirection,WindDirectionDegrees,WindSpeedMPH,WindSpeedGustMPH,Humidity,HourlyPrecipIn,Conditions,Clouds,dailyrainin,SoftwareType,DateUTC
2013-06-25 00:00:00,67.6,65.5,29.94,West,266,4.0,8.0,93,0.00,,,0.09,VWS V14.01,2013-06-25 04:00:00,
2013-06-25 00:01:00,67.6,65.5,29.94,North,355,4.0,8.0,93,0.00,,,0.09,VWS V14.01,2013-06-25 04:01:00,
2013-06-25 00:06:00,67.7,65.3,29.94,West,273,1.0,4.0,92,0.00,,,0.00,VWS V14.01,2013-06-25 04:06:00,
2013-06-25 00:11:00,67.6,65.2,29.94,North,5,3.0,7.0,92,0.00,,,0.00,VWS V14.01,2013-06-25 04:11:00,
2013-06-25 00:16:00,67.6,65.2,29.94,West,270,2.0,7.0,92,0.00,,,0.00,VWS V14.01,2013-06-25 04:16:00,
2013-06-25 00:21:00,67.6,65.2,29.94,NNW,334,3.0,7.0,92,0.00,,,0.00,VWS V14.01,2013-06-25 04:21:00,
2013-06-25 00:26:00,67.6,65.2,29.94,North,355,2.0,7.0,92,0.00,,,0.00,VWS V14.01,2013-06-25 04:26:00,
2013-06-25 00:31:00,67.6,64.9,29.94,NNW,342,3.0,7.0,91,0.00,,,0.00,VWS V14.01,2013-06-25 04:31:00,
2013-06-25 00:36:00,67.6,64.9,29.94,NNW,328,3.0,9.0,91,0.00,,,0.00,VWS V14.01,2013-06-25 04:36:00,
2013-06-25 00:41:00,67.5,64.8,29.93,West,279,4.0,9.0,91,0.00,,,0.00,VWS V14.01,2013-06-25 04:41:00,
2013-06-25 00:46:00,67.5,64.8,29.94,WNW,290,2.0,11.0,91,0.00,,,0.00,VWS V14.01,2013-06-25 04:46:00,
2013-06-25 00:51:00,67.4,64.7,29.94,West,268,2.0,11.0,91,0.00,,,0.00,VWS V14.01,2013-06-25 04:51:00,
2013-06-25 00:56:00,67.3,64.6,29.93,WSW,252,4.0,11.0,91,0.00,,,0.00,VWS V14.01,2013-06-25 04:56:00,
2013-06-25 01:01:00,67.3,64.6,29.93,WNW,290,2.0,11.0,91,0.00,,,0.00,VWS V14.01,2013-06-25 05:01:00,
2013-06-25 01:06:00,67.1,64.7,29.93,WNW,288,3.0,6.0,92,0.00,,,0.00,VWS V14.01,2013-06-25 05:06:00,
2013-06-25 01:11:00,67.0,64.6,29.93,NW,308,2.0,9.0,92,0.00,,,0.00,VWS V14.01,2013-06-25 05:11:00,
2013-06-25 01:16:00,67.0,64.6,29.93,WNW,293,0.0,9.0,92,0.00,,,0.00,VWS V14.01,2013-06-25 05:16:00,
2013-06-25 01:21:00,66.9,64.5,29.93,WNW,284,2.0,9.0,92,0.00,,,0.00,VWS V14.01,2013-06-25 05:21:00,
2013-06-25 01:26:00,66.9,64.5,29.93,WSW,255,0.0,9.0,92,0.00,,,0.00,VWS V14.01,2013-06-25 05:26:00,
2013-06-25 01:31:00,66.8,64.4,29.93,West,277,3.0,9.0,92,0.00,,,0.00,VWS V14.01,2013-06-25 05:31:00,
2013-06-25 01:36:00,66.7,64.6,29.93,West,261,3.0,3.0,93,0.00,,,0.00,VWS V14.01,2013-06-25 05:36:00,
2013-06-25 01:41:00,66.7,64.6,29.93,West,281,1.0,8.0,93,0.00,,,0.00,VWS V14.01,2013-06-25 05:41:00,
2013-06-25 01:46:00,66.7,64.6,29.93,WSW,244,5.0,8.0,93,0.00,,,0.00,VWS V14.01,2013-06-25 05:46:00,
2013-06-25 01:51:00,67.0,64.6,29.93,WSW,258,1.0,8.0,92,0.00,,,0.00,VWS V14.01,2013-06-25 05:51:00,
2013-06-25 01:56:00,67.2,64.5,29.93,West,279,6.0,8.0,91,0.00,,,0.00,VWS V14.01,2013-06-25 05:56:00,
2013-06-25 02:01:00,67.0,64.6,29.93,West,278,2.0,8.0,92,0.00,,,0.00,VWS V14.01,2013-06-25 06:01:00,
2013-06-25 02:06:00,66.7,64.3,29.93,North,349,2.0,5.0,92,0.00,,,0.00,VWS V14.01,2013-06-25 06:06:00,
2013-06-25 02:11:00,66.7,64.6,29.93,West,275,8.0,8.0,93,0.00,,,0.00,VWS V14.01,2013-06-25 06:11:00,
2013-06-25 02:16:00,66.6,64.5,29.93,West,264,4.0,8.0,93,0.00,,,0.00,VWS V14.01,2013-06-25 06:16:00,
2013-06-25 02:21:00,66.6,64.5,29.93,WSW,250,4.0,8.0,93,0.00,,,0.00,VWS V14.01,2013-06-25 06:21:00,
2013-06-25 02:26:00,66.5,64.4,29.93,WSW,257,2.0,8.0,93,0.00,,,0.00,VWS V14.01,2013-06-25 06:26:00,
2013-06-25 02:31:00,66.6,64.5,29.93,West,266,6.0,15.0,93,0.00,,,0.00,VWS V14.01,2013-06-25 06:31:00,
2013-06-25 02:36:00,66.7,64.3,29.92,WNW,282,0.0,6.0,92,0.00,,,0.00,VWS V14.01,2013-06-25 06:36:00,
2013-06-25 02:41:00,66.9,64.5,29.92,NW,317,3.0,11.0,92,0.00,,,0.00,VWS V14.01,2013-06-25 06:41:00,
2013-06-25 02:46:00,67.1,64.7,29.92,WNW,297,2.0,12.0,92,0.00,,,0.00,VWS V14.01,2013-06-25 06:46:00,
2013-06-25 02:51:00,67.1,64.7,29.92,WNW,290,4.0,12.0,92,0.00,,,0.00,VWS V14.01,2013-06-25 06:51:00,
2013-06-25 02:56:00,67.2,64.5,29.92,West,259,4.0,12.0,91,0.00,,,0.00,VWS V14.01,2013-06-25 06:56:00,
2013-06-25 03:01:00,67.2,64.5,29.92,North,355,0.0,12.0,91,0.00,,,0.00,VWS V14.01,2013-06-25 07:01:00,
2013-06-25 03:06:00,67.2,64.5,29.91,West,269,3.0,6.0,91,0.00,,,0.00,VWS V14.01,2013-06-25 07:06:00,
2013-06-25 03:11:00,67.2,64.5,29.91,West,267,4.0,6.0,91,0.00,,,0.00,VWS V14.01,2013-06-25 07:11:00,
2013-06-25 03:16:00,67.2,64.5,29.91,WNW,297,3.0,6.0,91,0.00,,,0.00,VWS V14.01,2013-06-25 07:16:00,
2013-06-25 03:21:00,67.2,64.5,29.91,West,279,0.0,6.0,91,0.00,,,0.00,VWS V14.01,2013-06-25 07:21:00,
2013-06-25 03:26:00,67.3,64.6,29.91,WSW,238,3.0,6.0,91,0.00,,,0.00,VWS V14.01,2013-06-25 07:26:00,
2013-06-25 03:31:00,67.4,64.4,29.91,WSW,250,1.0,6.0,90,0.00,,,0.00,VWS V14.01,2013-06-25 07:31:00,
2013-06-25 03:36:00,67.6,64.2,29.90,WSW,249,4.0,8.0,89,0.00,,,0.00,VWS V14.01,2013-06-25 07:36:00,
2013-06-25 03:41:00,67.6,64.2,29.91,WNW,294,3.0,8.0,89,0.00,,,0.00,VWS V14.01,2013-06-25 07:41:00,
2013-06-25 03:46:00,67.6,64.2,29.91,West,274,1.0,8.0,89,0.00,,,0.00,VWS V14.01,2013-06-25 07:46:00,
2013-06-25 03:51:00,67.5,64.2,29.90,West,266,2.0,8.0,89,0.00,,,0.00,VWS V14.01,2013-06-25 07:51:00,
2013-06-25 03:56:00,67.3,64.0,29.90,WSW,258,4.0,8.0,89,0.00,,,0.00,VWS V14.01,2013-06-25 07:56:00,
2013-06-25 04:01:00,67.0,64.0,29.91,West,269,5.0,9.0,90,0.00,,,0.00,VWS V14.01,2013-06-25 08:01:00,
2013-06-25 04:06:00,67.2,63.8,29.91,NW,311,2.0,7.0,89,0.00,,,0.00,VWS V14.01,2013-06-25 08:06:00,
2013-06-25 04:11:00,67.3,64.0,29.91,WNW,288,0.0,7.0,89,0.00,,,0.00,VWS V14.01,2013-06-25 08:11:00,
2013-06-25 04:16:00,67.1,64.1,29.91,West,271,2.0,7.0,90,0.00,,,0.00,VWS V14.01,2013-06-25 08:16:00,
2013-06-25 04:21:00,67.1,64.1,29.91,West,269,4.0,7.0,90,0.00,,,0.00,VWS V14.01,2013-06-25 08:21:00,
2013-06-25 04:26:00,67.0,64.0,29.91,WSW,250,3.0,7.0,90,0.00,,,0.00,VWS V14.01,2013-06-25 08:26:00,
2013-06-25 04:31:00,67.1,63.8,29.92,NNW,336,5.0,8.0,89,0.00,,,0.00,VWS V14.01,2013-06-25 08:31:00,
2013-06-25 04:36:00,67.2,63.8,29.91,West,261,5.0,6.0,89,0.00,,,0.00,VWS V14.01,2013-06-25 08:36:00,
2013-06-25 04:41:00,67.3,64.0,29.92,West,273,3.0,6.0,89,0.00,,,0.00,VWS V14.01,2013-06-25 08:41:00,
2013-06-25 04:46:00,67.2,63.8,29.92,West,280,2.0,8.0,89,0.00,,,0.00,VWS V14.01,2013-06-25 08:46:00,
2013-06-25 04:51:00,67.4,64.1,29.92,West,268,0.0,8.0,89,0.00,,,0.00,VWS V14.01,2013-06-25 08:51:00,
2013-06-25 04:56:00,67.2,63.8,29.92,WSW,254,6.0,8.0,89,0.00,,,0.00,VWS V14.01,2013-06-25 08:56:00,
2013-06-25 05:01:00,67.1,63.8,29.92,WNW,285,4.0,9.0,89,0.00,,,0.00,VWS V14.01,2013-06-25 09:01:00,
2013-06-25 05:06:00,67.1,63.8,29.92,WSW,252,0.0,4.0,89,0.00,,,0.00,VWS V14.01,2013-06-25 09:06:00,
2013-06-25 05:11:00,67.2,63.8,29.92,West,262,2.0,6.0,89,0.00,,,0.00,VWS V14.01,2013-06-25 09:11:00,
2013-06-25 05:16:00,67.1,63.8,29.92,West,266,2.0,6.0,89,0.00,,,0.00,VWS V14.01,2013-06-25 09:16:00,
2013-06-25 05:21:00,67.1,63.8,29.92,WNW,286,3.0,7.0,89,0.00,,,0.00,VWS V14.01,2013-06-25 09:21:00,
2013-06-25 05:26:00,67.1,63.4,29.92,West,263,4.0,7.0,88,0.00,,,0.00,VWS V14.01,2013-06-25 09:26:00,
2013-06-25 05:31:00,67.2,63.5,29.92,West,259,3.0,7.0,88,0.00,,,0.00,VWS V14.01,2013-06-25 09:31:00,
2013-06-25 05:36:00,67.2,63.5,29.91,WNW,282,3.0,6.0,88,0.00,,,0.00,VWS V14.01,2013-06-25 09:36:00,
2013-06-25 05:41:00,67.2,63.5,29.91,WNW,285,3.0,6.0,88,0.00,,,0.00,VWS V14.01,2013-06-25 09:41:00,
2013-06-25 05:46:00,67.2,63.8,29.91,West,280,3.0,6.0,89,0.00,,,0.00,VWS V14.01,2013-06-25 09:46:00,
2013-06-25 05:51:00,67.2,63.5,29.91,West,269,1.0,6.0,88,0.00,,,0.00,VWS V14.01,2013-06-25 09:51:00,
2013-06-25 05:56:00,67.3,63.6,29.92,West,269,2.0,6.0,88,0.00,,,0.00,VWS V14.01,2013-06-25 09:56:00,
2013-06-25 06:01:00,67.4,63.4,29.92,West,260,1.0,6.0,87,0.00,,,0.00,VWS V14.01,2013-06-25 10:01:00,
2013-06-25 06:06:00,67.5,63.5,29.92,WSW,251,1.0,3.0,87,0.00,,,0.00,VWS V14.01,2013-06-25 10:06:00,
2013-06-25 06:11:00,67.3,63.6,29.92,West,273,0.0,3.0,88,0.00,,,0.00,VWS V14.01,2013-06-25 10:11:00,
2013-06-25 06:16:00,67.3,63.6,29.92,West,263,1.0,6.0,88,0.00,,,0.00,VWS V14.01,2013-06-25 10:16:00,
2013-06-25 06:21:00,67.3,63.6,29.92,WSW,257,2.0,6.0,88,0.00,,,0.00,VWS V14.01,2013-06-25 10:21:00,
2013-06-25 06:26:00,67.4,63.7,29.92,WSW,257,0.0,6.0,88,0.00,,,0.00,VWS V14.01,2013-06-25 10:26:00,
2013-06-25 06:31:00,67.4,63.7,29.92,WSW,247,1.0,6.0,88,0.00,,,0.00,VWS V14.01,2013-06-25 10:31:00,
2013-06-25 06:36:00,67.6,64.2,29.91,WSW,258,0.0,3.0,89,0.00,,,0.00,VWS V14.01,2013-06-25 10:36:00,
2013-06-25 06:41:00,67.9,64.2,29.91,WSW,258,0.0,3.0,88,0.00,,,0.00,VWS V14.01,2013-06-25 10:41:00,
2013-06-25 06:46:00,68.1,64.4,29.91,West,277,0.0,4.0,88,0.00,,,0.00,VWS V14.01,2013-06-25 10:46:00,
2013-06-25 06:51:00,68.3,64.3,29.91,West,265,2.0,4.0,87,0.00,,,0.00,VWS V14.01,2013-06-25 10:51:00,
2013-06-25 06:56:00,68.6,64.6,29.91,WNW,284,1.0,5.0,87,0.00,,,0.00,VWS V14.01,2013-06-25 10:56:00,
2013-06-25 07:01:00,68.8,65.1,29.91,WNW,284,2.0,5.0,88,0.00,,,0.00,VWS V14.01,2013-06-25 11:01:00,
2013-06-25 07:06:00,69.2,64.5,29.91,West,260,4.0,4.0,85,0.00,,,0.00,VWS V14.01,2013-06-25 11:06:00,
2013-06-25 07:11:00,69.4,64.4,29.91,WSW,257,4.0,5.0,84,0.00,,,0.00,VWS V14.01,2013-06-25 11:11:00,
2013-06-25 07:16:00,69.5,64.5,29.91,WNW,289,2.0,5.0,84,0.00,,,0.00,VWS V14.01,2013-06-25 11:16:00,
2013-06-25 07:21:00,69.4,64.4,29.91,WSW,242,2.0,5.0,84,0.00,,,0.00,VWS V14.01,2013-06-25 11:21:00,
2013-06-25 07:26:00,69.6,64.9,29.91,WSW,248,0.0,5.0,85,0.00,,,0.00,VWS V14.01,2013-06-25 11:26:00,
2013-06-25 07:31:00,69.7,64.7,29.91,West,269,1.0,5.0,84,0.00,,,0.00,VWS V14.01,2013-06-25 11:31:00,
2013-06-25 07:36:00,70.0,64.6,29.91,West,278,0.0,5.0,83,0.00,,,0.00,VWS V14.01,2013-06-25 11:36:00,
2013-06-25 07:41:00,70.3,64.9,29.91,West,270,1.0,10.0,83,0.00,,,0.00,VWS V14.01,2013-06-25 11:41:00,
2013-06-25 07:46:00,70.5,65.1,29.91,West,261,4.0,10.0,83,0.00,,,0.00,VWS V14.01,2013-06-25 11:46:00,
2013-06-25 07:51:00,70.9,64.8,29.91,West,273,6.0,10.0,81,0.00,,,0.00,VWS V14.01,2013-06-25 11:51:00,
2013-06-25 07:56:00,71.3,65.2,29.91,WNW,288,0.0,10.0,81,0.00,,,0.00,VWS V14.01,2013-06-25 11:56:00,
2013-06-25 08:01:00,71.6,65.1,29.91,West,269,1.0,10.0,80,0.00,,,0.00,VWS V14.01,2013-06-25 12:01:00,
2013-06-25 08:06:00,72.0,65.5,29.91,WNW,288,3.0,8.0,80,0.00,,,0.00,VWS V14.01,2013-06-25 12:06:00,
2013-06-25 08:11:00,72.6,65.3,29.91,WSW,254,1.0,8.0,78,0.00,,,0.00,VWS V14.01,2013-06-25 12:11:00,
2013-06-25 08:16:00,72.9,66.0,29.90,WNW,285,3.0,8.0,79,0.00,,,0.00,VWS V14.01,2013-06-25 12:16:00,
2013-06-25 08:21:00,73.3,66.0,29.91,WSW,242,2.0,8.0,78,0.00,,,0.00,VWS V14.01,2013-06-25 12:21:00,
2013-06-25 08:26:00,73.6,65.9,29.91,West,261,1.0,8.0,77,0.00,,,0.00,VWS V14.01,2013-06-25 12:26:00,
2013-06-25 08:31:00,74.1,65.7,29.91,West,261,1.0,8.0,75,0.00,,,0.00,VWS V14.01,2013-06-25 12:31:00,
2013-06-25 08:36:00,74.5,65.7,29.91,West,263,1.0,6.0,74,0.00,,,0.00,VWS V14.01,2013-06-25 12:36:00,
2013-06-25 08:41:00,74.9,66.1,29.91,West,271,3.0,6.0,74,0.00,,,0.00,VWS V14.01,2013-06-25 12:41:00,
2013-06-25 08:46:00,74.9,66.1,29.90,West,276,2.0,6.0,74,0.00,,,0.00,VWS V14.01,2013-06-25 12:46:00,
2013-06-25 08:51:00,75.2,66.3,29.90,WSW,250,4.0,6.0,74,0.00,,,0.00,VWS V14.01,2013-06-25 12:51:00,
2013-06-25 08:56:00,75.2,66.0,29.90,WSW,253,2.0,8.0,73,0.00,,,0.00,VWS V14.01,2013-06-25 12:56:00,
2013-06-25 09:01:00,75.1,66.2,29.90,West,281,0.0,8.0,74,0.00,,,0.00,VWS V14.01,2013-06-25 13:01:00,
2013-06-25 09:06:00,75.1,66.6,29.90,WSW,253,5.0,7.0,75,0.00,,,0.00,VWS V14.01,2013-06-25 13:06:00,
2013-06-25 09:11:00,75.1,66.2,29.90,North,355,1.0,7.0,74,0.00,,,0.00,VWS V14.01,2013-06-25 13:11:00,
2013-06-25 09:16:00,75.7,66.4,29.90,West,279,4.0,8.0,73,0.00,,,0.00,VWS V14.01,2013-06-25 13:16:00,
2013-06-25 09:21:00,76.2,66.9,29.90,WNW,296,2.0,9.0,73,0.00,,,0.00,VWS V14.01,2013-06-25 13:21:00,
2013-06-25 09:26:00,76.7,66.6,29.90,WNW,287,1.0,9.0,71,0.00,,,0.00,VWS V14.01,2013-06-25 13:26:00,
2013-06-25 09:31:00,77.4,67.7,29.89,WSW,242,4.0,9.0,72,0.00,,,0.00,VWS V14.01,2013-06-25 13:31:00,
2013-06-25 09:36:00,77.4,66.9,29.89,West,273,7.0,7.0,70,0.00,,,0.00,VWS V14.01,2013-06-25 13:36:00,
2013-06-25 09:41:00,77.4,66.4,29.89,West,259,1.0,8.0,69,0.00,,,0.00,VWS V14.01,2013-06-25 13:41:00,
2013-06-25 09:46:00,77.6,67.1,29.89,SW,228,3.0,10.0,70,0.00,,,0.00,VWS V14.01,2013-06-25 13:46:00,
2013-06-25 09:51:00,78.0,66.6,29.90,WSW,258,2.0,10.0,68,0.00,,,0.00,VWS V14.01,2013-06-25 13:51:00,
2013-06-25 09:56:00,78.3,67.7,29.90,WNW,283,0.0,10.0,70,0.00,,,0.00,VWS V14.01,2013-06-25 13:56:00,
2013-06-25 10:01:00,78.7,67.7,29.90,West,261,1.0,10.0,69,0.00,,,0.00,VWS V14.01,2013-06-25 14:01:00,
2013-06-25 10:06:00,78.9,67.4,29.90,SW,217,3.0,7.0,68,0.00,,,0.00,VWS V14.01,2013-06-25 14:06:00,
2013-06-25 10:11:00,79.1,67.6,29.90,SW,234,2.0,11.0,68,0.00,,,0.00,VWS V14.01,2013-06-25 14:11:00,
2013-06-25 10:16:00,79.3,67.4,29.90,West,265,5.0,11.0,67,0.00,,,0.00,VWS V14.01,2013-06-25 14:16:00,
2013-06-25 10:21:00,79.5,67.6,29.90,NE,55,3.0,11.0,67,0.00,,,0.00,VWS V14.01,2013-06-25 14:21:00,
2013-06-25 10:26:00,80.0,68.5,29.90,West,265,5.0,11.0,68,0.00,,,0.00,VWS V14.01,2013-06-25 14:26:00,
2013-06-25 10:31:00,80.4,68.4,29.90,West,281,2.0,11.0,67,0.00,,,0.00,VWS V14.01,2013-06-25 14:31:00,
2013-06-25 10:36:00,80.7,68.7,29.90,SE,144,0.0,4.0,67,0.00,,,0.00,VWS V14.01,2013-06-25 14:36:00,
2013-06-25 10:41:00,81.1,69.6,29.90,NW,314,3.0,7.0,68,0.00,,,0.00,VWS V14.01,2013-06-25 14:41:00,
2013-06-25 10:46:00,81.5,68.6,29.90,NE,36,0.0,8.0,65,0.00,,,0.00,VWS V14.01,2013-06-25 14:46:00,
2013-06-25 10:51:00,81.7,68.8,29.90,WNW,303,11.0,11.0,65,0.00,,,0.00,VWS V14.01,2013-06-25 14:51:00,
2013-06-25 10:56:00,81.9,68.5,29.90,NW,325,8.0,13.0,64,0.00,,,0.00,VWS V14.01,2013-06-25 14:56:00,
2013-06-25 11:01:00,81.8,68.4,29.90,NNE,12,3.0,13.0,64,0.00,,,0.00,VWS V14.01,2013-06-25 15:01:00,
2013-06-25 11:06:00,82.2,69.3,29.90,NW,311,4.0,5.0,65,0.00,,,0.00,VWS V14.01,2013-06-25 15:06:00,
2013-06-25 11:11:00,82.3,70.3,29.90,NW,308,2.0,7.0,67,0.00,,,0.00,VWS V14.01,2013-06-25 15:11:00,
2013-06-25 11:16:00,82.3,69.4,29.90,West,269,3.0,10.0,65,0.00,,,0.00,VWS V14.01,2013-06-25 15:16:00,
2013-06-25 11:21:00,82.6,70.1,29.90,NNE,13,1.0,10.0,66,0.00,,,0.00,VWS V14.01,2013-06-25 15:21:00,
2013-06-25 11:26:00,83.0,70.5,29.90,NNW,346,3.0,10.0,66,0.00,,,0.00,VWS V14.01,2013-06-25 15:26:00,
2013-06-25 11:31:00,83.3,71.2,29.90,NW,311,2.0,10.0,67,0.00,,,0.00,VWS V14.01,2013-06-25 15:31:00,
2013-06-25 11:36:00,83.6,71.1,29.90,WSW,247,1.0,8.0,66,0.00,,,0.00,VWS V14.01,2013-06-25 15:36:00,
2013-06-25 11:41:00,83.6,70.1,29.90,NW,326,1.0,11.0,64,0.00,,,0.00,VWS V14.01,2013-06-25 15:41:00,
2013-06-25 11:46:00,83.7,69.8,29.90,WNW,297,1.0,11.0,63,0.00,,,0.00,VWS V14.01,2013-06-25 15:46:00,
2013-06-25 11:51:00,84.1,71.1,29.89,SW,232,0.0,11.0,65,0.00,,,0.00,VWS V14.01,2013-06-25 15:51:00,
2013-06-25 11:56:00,84.0,70.5,29.89,WSW,257,6.0,11.0,64,0.00,,,0.00,VWS V14.01,2013-06-25 15:56:00,
2013-06-25 12:01:00,84.3,71.3,29.89,WNW,302,5.0,11.0,65,0.00,,,0.00,VWS V14.01,2013-06-25 16:01:00,
2013-06-25 12:06:00,84.3,71.3,29.89,WSW,256,2.0,5.0,65,0.00,,,0.00,VWS V14.01,2013-06-25 16:06:00,
2013-06-25 12:11:00,84.4,70.9,29.89,West,262,5.0,11.0,64,0.00,,,0.00,VWS V14.01,2013-06-25 16:11:00,
2013-06-25 12:16:00,84.6,71.6,29.89,West,274,4.0,11.0,65,0.00,,,0.00,VWS V14.01,2013-06-25 16:16:00,
2013-06-25 12:21:00,84.5,70.1,29.89,SW,217,3.0,12.0,62,0.00,,,0.00,VWS V14.01,2013-06-25 16:21:00,
2013-06-25 12:26:00,84.7,70.7,29.89,West,259,9.0,12.0,63,0.00,,,0.00,VWS V14.01,2013-06-25 16:26:00,
2013-06-25 12:31:00,84.4,70.0,29.89,WSW,254,4.0,12.0,62,0.00,,,0.00,VWS V14.01,2013-06-25 16:31:00,
2013-06-25 12:36:00,84.8,69.4,29.89,West,277,4.0,11.0,60,0.00,,,0.00,VWS V14.01,2013-06-25 16:36:00,
2013-06-25 12:41:00,84.9,69.0,29.89,NW,309,2.0,13.0,59,0.00,,,0.00,VWS V14.01,2013-06-25 16:41:00,
2013-06-25 12:46:00,84.7,68.8,29.89,West,259,0.0,13.0,59,0.00,,,0.00,VWS V14.01,2013-06-25 16:46:00,
2013-06-25 12:51:00,85.2,69.3,29.88,NW,306,2.0,13.0,59,0.00,,,0.00,VWS V14.01,2013-06-25 16:51:00,
2013-06-25 12:56:00,85.4,69.0,29.88,NW,312,1.0,13.0,58,0.00,,,0.00,VWS V14.01,2013-06-25 16:56:00,
2013-06-25 13:01:00,85.5,69.1,29.88,West,259,2.0,13.0,58,0.00,,,0.00,VWS V14.01,2013-06-25 17:01:00,
2013-06-25 13:06:00,85.6,69.6,29.88,WNW,296,2.0,4.0,59,0.00,,,0.00,VWS V14.01,2013-06-25 17:06:00,
2013-06-25 13:11:00,85.4,68.4,29.87,WNW,292,0.0,8.0,57,0.00,,,0.00,VWS V14.01,2013-06-25 17:11:00,
2013-06-25 13:16:00,85.5,69.6,29.87,West,264,2.0,8.0,59,0.00,,,0.00,VWS V14.01,2013-06-25 17:16:00,
2013-06-25 13:21:00,85.5,70.0,29.87,WNW,284,1.0,8.0,60,0.00,,,0.00,VWS V14.01,2013-06-25 17:21:00,
2013-06-25 13:26:00,85.9,69.9,29.86,WNW,283,1.0,8.0,59,0.00,,,0.00,VWS V14.01,2013-06-25 17:26:00,
2013-06-25 13:31:00,86.1,70.6,29.86,West,281,7.0,8.0,60,0.00,,,0.00,VWS V14.01,2013-06-25 17:31:00,
2013-06-25 13:36:00,85.6,69.1,29.86,NNW,333,1.0,6.0,58,0.00,,,0.00,VWS V14.01,2013-06-25 17:36:00,
2013-06-25 13:41:00,85.6,68.6,29.86,SW,232,2.0,12.0,57,0.00,,,0.00,VWS V14.01,2013-06-25 17:41:00,
2013-06-25 13:46:00,86.3,68.8,29.85,North,9,3.0,12.0,56,0.00,,,0.00,VWS V14.01,2013-06-25 17:46:00,
2013-06-25 13:51:00,86.1,69.6,29.85,NNE,32,2.0,12.0,58,0.00,,,0.00,VWS V14.01,2013-06-25 17:51:00,
2013-06-25 13:56:00,86.2,69.2,29.85,South,189,3.0,12.0,57,0.00,,,0.00,VWS V14.01,2013-06-25 17:56:00,
2013-06-25 14:01:00,86.4,69.9,29.84,West,266,0.0,12.0,58,0.00,,,0.00,VWS V14.01,2013-06-25 18:01:00,
2013-06-25 14:06:00,86.0,69.5,29.84,WSW,258,9.0,9.0,58,0.00,,,0.00,VWS V14.01,2013-06-25 18:06:00,
2013-06-25 14:11:00,85.7,68.7,29.84,NW,313,3.0,9.0,57,0.00,,,0.00,VWS V14.01,2013-06-25 18:11:00,
2013-06-25 14:16:00,86.2,68.2,29.84,NW,315,4.0,9.0,55,0.00,,,0.00,VWS V14.01,2013-06-25 18:16:00,
2013-06-25 14:21:00,86.2,68.2,29.84,NW,315,3.0,10.0,55,0.00,,,0.00,VWS V14.01,2013-06-25 18:21:00,
2013-06-25 14:26:00,86.2,69.7,29.83,WNW,294,2.0,11.0,58,0.00,,,0.00,VWS V14.01,2013-06-25 18:26:00,
2013-06-25 14:31:00,86.6,69.1,29.83,NW,305,3.0,11.0,56,0.00,,,0.00,VWS V14.01,2013-06-25 18:31:00,
2013-06-25 14:36:00,86.6,69.1,29.83,West,281,1.0,4.0,56,0.00,,,0.00,VWS V14.01,2013-06-25 18:36:00,
2013-06-25 14:41:00,86.1,68.1,29.83,West,263,6.0,9.0,55,0.00,,,0.00,VWS V14.01,2013-06-25 18:41:00,
2013-06-25 14:46:00,86.1,67.5,29.83,WSW,247,2.0,9.0,54,0.00,,,0.00,VWS V14.01,2013-06-25 18:46:00,
2013-06-25 14:51:00,86.9,67.7,29.82,West,263,6.0,9.0,53,0.00,,,0.00,VWS V14.01,2013-06-25 18:51:00,
2013-06-25 14:56:00,87.0,67.8,29.82,NNE,21,0.0,9.0,53,0.00,,,0.00,VWS V14.01,2013-06-25 18:56:00,
2013-06-25 15:01:00,86.9,67.2,29.82,SW,223,1.0,9.0,52,0.00,,,0.00,VWS V14.01,2013-06-25 19:01:00,
2013-06-25 15:06:00,86.4,67.3,29.82,WSW,244,5.0,6.0,53,0.00,,,0.00,VWS V14.01,2013-06-25 19:06:00,
2013-06-25 15:11:00,86.5,67.3,29.81,NW,325,1.0,10.0,53,0.00,,,0.00,VWS V14.01,2013-06-25 19:11:00,
2013-06-25 15:16:00,86.5,66.8,29.81,WSW,258,0.0,10.0,52,0.00,,,0.00,VWS V14.01,2013-06-25 19:16:00,
2013-06-25 15:21:00,85.8,68.8,29.81,NNE,32,0.0,10.0,57,0.00,,,0.00,VWS V14.01,2013-06-25 19:21:00,
2013-06-25 15:26:00,86.1,70.6,29.81,WNW,288,1.0,10.0,60,0.00,,,0.00,VWS V14.01,2013-06-25 19:26:00,
2013-06-25 15:31:00,86.4,68.3,29.81,SW,234,0.0,10.0,55,0.00,,,0.00,VWS V14.01,2013-06-25 19:31:00,
2013-06-25 15:36:00,86.6,69.1,29.80,WNW,303,4.0,5.0,56,0.00,,,0.00,VWS V14.01,2013-06-25 19:36:00,
2013-06-25 15:41:00,86.2,67.1,29.80,North,360,0.0,5.0,53,0.00,,,0.00,VWS V14.01,2013-06-25 19:41:00,
2013-06-25 15:46:00,86.0,67.4,29.79,ENE,66,0.0,6.0,54,0.00,,,0.00,VWS V14.01,2013-06-25 19:46:00,
2013-06-25 15:51:00,86.1,68.1,29.79,WSW,254,2.0,7.0,55,0.00,,,0.00,VWS V14.01,2013-06-25 19:51:00,
2013-06-25 15:56:00,85.9,68.4,29.79,WNW,294,3.0,7.0,56,0.00,,,0.00,VWS V14.01,2013-06-25 19:56:00,
2013-06-25 16:01:00,86.0,70.0,29.79,SW,217,3.0,7.0,59,0.00,,,0.00,VWS V14.01,2013-06-25 20:01:00,
2013-06-25 16:06:00,86.0,68.0,29.79,WNW,300,4.0,8.0,55,0.00,,,0.00,VWS V14.01,2013-06-25 20:06:00,
2013-06-25 16:11:00,85.8,68.3,29.78,WNW,302,5.0,8.0,56,0.00,,,0.00,VWS V14.01,2013-06-25 20:11:00,
2013-06-25 16:16:00,85.9,70.9,29.78,SE,138,1.0,8.0,61,0.00,,,0.00,VWS V14.01,2013-06-25 20:16:00,
2013-06-25 16:21:00,85.5,69.6,29.78,WNW,287,0.0,8.0,59,0.00,,,0.00,VWS V14.01,2013-06-25 20:21:00,
2013-06-25 16:26:00,85.2,70.2,29.77,SE,128,2.0,8.0,61,0.00,,,0.00,VWS V14.01,2013-06-25 20:26:00,
2013-06-25 16:31:00,84.8,69.9,29.77,WNW,302,0.0,8.0,61,0.00,,,0.00,VWS V14.01,2013-06-25 20:31:00,
2013-06-25 16:36:00,85.1,69.2,29.77,NW,309,1.0,4.0,59,0.00,,,0.00,VWS V14.01,2013-06-25 20:36:00,
2013-06-25 16:41:00,84.7,71.2,29.77,NNW,331,0.0,4.0,64,0.00,,,0.00,VWS V14.01,2013-06-25 20:41:00,
2013-06-25 16:46:00,85.3,70.3,29.77,NNE,33,1.0,4.0,61,0.00,,,0.00,VWS V14.01,2013-06-25 20:46:00,
2013-06-25 16:51:00,85.1,69.7,29.77,SW,219,1.0,9.0,60,0.00,,,0.00,VWS V14.01,2013-06-25 20:51:00,
2013-06-25 16:56:00,84.7,70.2,29.77,North,360,1.0,9.0,62,0.00,,,0.00,VWS V14.01,2013-06-25 20:56:00,
2013-06-25 17:01:00,84.4,69.5,29.77,East,94,2.0,9.0,61,0.00,,,0.00,VWS V14.01,2013-06-25 21:01:00,
2013-06-25 17:06:00,84.6,69.7,29.77,WSW,254,0.0,0.0,61,0.00,,,0.00,VWS V14.01,2013-06-25 21:06:00,
2013-06-25 17:11:00,85.1,70.2,29.78,WSW,248,2.0,8.0,61,0.00,,,0.00,VWS V14.01,2013-06-25 21:11:00,
2013-06-25 17:16:00,85.7,70.2,29.78,WSW,244,3.0,8.0,60,0.00,,,0.00,VWS V14.01,2013-06-25 21:16:00,
2013-06-25 17:21:00,85.7,69.7,29.77,SSE,161,3.0,8.0,59,0.00,,,0.00,VWS V14.01,2013-06-25 21:21:00,
2013-06-25 17:26:00,86.0,69.5,29.77,WNW,299,0.0,8.0,58,0.00,,,0.00,VWS V14.01,2013-06-25 21:26:00,
2013-06-25 17:31:00,85.7,68.7,29.77,SSW,193,0.0,8.0,57,0.00,,,0.00,VWS V14.01,2013-06-25 21:31:00,
2013-06-25 17:36:00,85.7,69.7,29.76,West,267,0.0,2.0,59,0.00,,,0.00,VWS V14.01,2013-06-25 21:36:00,
2013-06-25 17:41:00,85.4,70.4,29.75,NW,308,3.0,4.0,61,0.00,,,0.00,VWS V14.01,2013-06-25 21:41:00,
2013-06-25 17:46:00,85.4,69.4,29.75,NNW,334,1.0,5.0,59,0.00,,,0.00,VWS V14.01,2013-06-25 21:46:00,
2013-06-25 17:51:00,85.5,69.6,29.74,South,189,0.0,5.0,59,0.00,,,0.00,VWS V14.01,2013-06-25 21:51:00,
2013-06-25 17:56:00,85.6,69.1,29.75,SW,234,2.0,7.0,58,0.00,,,0.00,VWS V14.01,2013-06-25 21:56:00,
2013-06-25 18:01:00,84.7,68.8,29.75,NNE,24,0.0,7.0,59,0.00,,,0.00,VWS V14.01,2013-06-25 22:01:00,
2013-06-25 18:06:00,84.6,69.2,29.75,WSW,252,1.0,3.0,60,0.00,,,0.00,VWS V14.01,2013-06-25 22:06:00,
2013-06-25 18:11:00,84.8,70.3,29.75,West,279,0.0,3.0,62,0.00,,,0.00,VWS V14.01,2013-06-25 22:11:00,
2013-06-25 18:16:00,84.4,70.4,29.75,NNE,22,2.0,4.0,63,0.00,,,0.00,VWS V14.01,2013-06-25 22:16:00,
2013-06-25 18:21:00,83.9,70.9,29.76,WNW,288,1.0,5.0,65,0.00,,,0.00,VWS V14.01,2013-06-25 22:21:00,
2013-06-25 18:26:00,83.4,70.9,29.76,SE,139,0.0,5.0,66,0.00,,,0.00,VWS V14.01,2013-06-25 22:26:00,
2013-06-25 18:31:00,82.6,71.4,29.76,WNW,287,1.0,5.0,69,0.00,,,0.00,VWS V14.01,2013-06-25 22:31:00,
2013-06-25 18:36:00,82.5,71.3,29.75,West,276,0.0,3.0,69,0.00,,,0.00,VWS V14.01,2013-06-25 22:36:00,
2013-06-25 18:41:00,82.4,71.2,29.75,WNW,284,2.0,3.0,69,0.00,,,0.00,VWS V14.01,2013-06-25 22:41:00,
2013-06-25 18:46:00,82.5,71.3,29.75,SSW,210,0.0,4.0,69,0.00,,,0.00,VWS V14.01,2013-06-25 22:46:00,
2013-06-25 18:51:00,82.0,71.7,29.75,SSW,213,0.0,4.0,71,0.00,,,0.00,VWS V14.01,2013-06-25 22:51:00,
2013-06-25 18:56:00,82.0,71.3,29.75,SSW,208,0.0,4.0,70,0.00,,,0.00,VWS V14.01,2013-06-25 22:56:00,
2013-06-25 19:01:00,82.0,71.7,29.74,SW,226,1.0,6.0,71,0.00,,,0.00,VWS V14.01,2013-06-25 23:01:00,
2013-06-25 19:06:00,81.7,71.4,29.75,SW,218,0.0,1.0,71,0.00,,,0.00,VWS V14.01,2013-06-25 23:06:00,
2013-06-25 19:11:00,81.1,71.6,29.74,West,280,0.0,3.0,73,0.00,,,0.00,VWS V14.01,2013-06-25 23:11:00,
2013-06-25 19:16:00,80.8,71.3,29.74,West,280,1.0,3.0,73,0.00,,,0.00,VWS V14.01,2013-06-25 23:16:00,
2013-06-25 19:21:00,80.8,71.3,29.74,North,355,1.0,3.0,73,0.00,,,0.00,VWS V14.01,2013-06-25 23:21:00,
2013-06-25 19:26:00,80.8,71.3,29.74,South,191,0.0,4.0,73,0.00,,,0.00,VWS V14.01,2013-06-25 23:26:00,
2013-06-25 19:31:00,80.6,70.3,29.75,East,100,3.0,4.0,71,0.00,,,0.00,VWS V14.01,2013-06-25 23:31:00,
2013-06-25 19:36:00,80.1,69.9,29.75,WSW,246,11.0,11.0,71,0.00,,,0.00,VWS V14.01,2013-06-25 23:36:00,
2013-06-25 19:41:00,79.5,69.3,29.75,South,172,3.0,14.0,71,0.00,,,0.00,VWS V14.01,2013-06-25 23:41:00,
2013-06-25 19:46:00,78.5,68.3,29.75,SE,135,2.0,14.0,71,0.00,,,0.00,VWS V14.01,2013-06-25 23:46:00,
2013-06-25 19:51:00,77.4,68.5,29.75,WSW,252,0.0,14.0,74,0.00,,,0.00,VWS V14.01,2013-06-25 23:51:00,
2013-06-25 19:56:00,76.5,68.4,29.75,West,271,7.0,14.0,76,0.00,,,0.00,VWS V14.01,2013-06-25 23:56:00,
2013-06-25 20:01:00,76.1,68.0,29.75,SSE,158,2.0,14.0,76,0.00,,,0.00,VWS V14.01,2013-06-26 00:01:00,
2013-06-25 20:06:00,75.5,68.2,29.75,SSW,192,0.0,1.0,78,0.00,,,0.00,VWS V14.01,2013-06-26 00:06:00,
2013-06-25 20:11:00,75.0,68.1,29.75,NW,311,0.0,5.0,79,0.00,,,0.00,VWS V14.01,2013-06-26 00:11:00,
2013-06-25 20:15:00,74.2,68.4,29.75,SSW,205,0.0,5.0,82,0.00,,,0.00,VWS V14.01,2013-06-26 00:15:00,
2013-06-25 20:20:00,73.4,68.3,29.75,SW,232,0.0,5.0,84,0.00,,,0.00,VWS V14.01,2013-06-26 00:20:00,
2013-06-25 20:25:00,73.2,68.4,29.75,West,267,2.0,5.0,85,0.00,,,0.00,VWS V14.01,2013-06-26 00:25:00,
2013-06-25 20:30:00,73.1,68.3,29.75,West,267,0.0,5.0,85,0.00,,,0.00,VWS V14.01,2013-06-26 00:30:00,
2013-06-25 20:35:00,73.1,68.3,29.75,West,266,2.0,2.0,85,0.00,,,0.00,VWS V14.01,2013-06-26 00:35:00,
2013-06-25 20:40:00,73.1,68.3,29.74,NNW,339,0.0,4.0,85,0.00,,,0.00,VWS V14.01,2013-06-26 00:40:00,
2013-06-25 20:45:00,73.0,68.2,29.74,NW,309,0.0,4.0,85,0.00,,,0.00,VWS V14.01,2013-06-26 00:45:00,
2013-06-25 20:50:00,73.0,68.2,29.74,NW,309,0.0,4.0,85,0.00,,,0.00,VWS V14.01,2013-06-26 00:50:00,
2013-06-25 20:55:00,73.1,68.3,29.75,WNW,288,3.0,5.0,85,0.00,,,0.00,VWS V14.01,2013-06-26 00:55:00,
2013-06-25 21:00:00,73.5,67.7,29.75,NW,317,2.0,5.0,82,0.00,,,0.00,VWS V14.01,2013-06-26 01:00:00,
2013-06-25 21:05:00,73.9,67.3,29.75,NW,317,5.0,5.0,80,0.00,,,0.00,VWS V14.01,2013-06-26 01:05:00,
2013-06-25 21:10:00,74.3,67.0,29.75,WNW,296,3.0,10.0,78,0.00,,,0.00,VWS V14.01,2013-06-26 01:10:00,
2013-06-25 21:15:00,74.4,67.1,29.75,West,270,3.0,10.0,78,0.00,,,0.00,VWS V14.01,2013-06-26 01:15:00,
2013-06-25 21:20:00,74.4,67.1,29.75,West,277,5.0,10.0,78,0.00,,,0.00,VWS V14.01,2013-06-26 01:20:00,
2013-06-25 21:25:00,74.4,67.1,29.75,NNE,25,0.0,10.0,78,0.00,,,0.00,VWS V14.01,2013-06-26 01:25:00,
2013-06-25 21:30:00,74.3,67.0,29.75,WNW,283,2.0,10.0,78,0.00,,,0.00,VWS V14.01,2013-06-26 01:30:00,
2013-06-25 21:35:00,74.2,67.3,29.75,WNW,284,7.0,7.0,79,0.00,,,0.00,VWS V14.01,2013-06-26 01:35:00,
2013-06-25 21:40:00,74.1,67.2,29.75,NNE,24,0.0,8.0,79,0.00,,,0.00,VWS V14.01,2013-06-26 01:40:00,
2013-06-25 21:45:00,73.9,67.3,29.75,SW,234,4.0,8.0,80,0.00,,,0.00,VWS V14.01,2013-06-26 01:45:00,
2013-06-25 21:50:00,73.9,67.3,29.75,West,271,5.0,8.0,80,0.00,,,0.00,VWS V14.01,2013-06-26 01:50:00,
2013-06-25 21:55:00,73.9,67.3,29.75,SW,217,4.0,9.0,80,0.00,,,0.00,VWS V14.01,2013-06-26 01:55:00,
2013-06-25 22:00:00,73.8,67.2,29.76,West,274,2.0,9.0,80,0.00,,,0.00,VWS V14.01,2013-06-26 02:00:00,
2013-06-25 22:05:00,73.7,67.5,29.76,SW,222,4.0,5.0,81,0.00,,,0.00,VWS V14.01,2013-06-26 02:05:00,
2013-06-25 22:10:00,73.6,67.4,29.76,WSW,240,9.0,9.0,81,0.00,,,0.00,VWS V14.01,2013-06-26 02:10:00,
2013-06-25 22:15:00,73.5,67.3,29.76,WNW,283,7.0,9.0,81,0.00,,,0.00,VWS V14.01,2013-06-26 02:15:00,
2013-06-25 22:20:00,73.4,67.2,29.76,WSW,246,3.0,9.0,81,0.00,,,0.00,VWS V14.01,2013-06-26 02:20:00,
2013-06-25 22:25:00,73.4,67.2,29.76,West,269,6.0,9.0,81,0.00,,,0.00,VWS V14.01,2013-06-26 02:25:00,
2013-06-25 22:30:00,73.3,67.5,29.76,NNW,329,1.0,9.0,82,0.00,,,0.00,VWS V14.01,2013-06-26 02:30:00,
2013-06-25 22:35:00,73.1,67.3,29.76,WNW,288,2.0,3.0,82,0.00,,,0.00,VWS V14.01,2013-06-26 02:35:00,
2013-06-25 22:40:00,73.0,67.2,29.76,West,276,2.0,7.0,82,0.00,,,0.00,VWS V14.01,2013-06-26 02:40:00,
2013-06-25 22:45:00,73.0,67.2,29.76,NW,307,0.0,10.0,82,0.00,,,0.00,VWS V14.01,2013-06-26 02:45:00,
2013-06-25 22:50:00,72.9,67.4,29.76,NNE,33,0.0,10.0,83,0.00,,,0.00,VWS V14.01,2013-06-26 02:50:00,
2013-06-25 22:55:00,72.8,67.3,29.77,West,278,0.0,10.0,83,0.00,,,0.00,VWS V14.01,2013-06-26 02:55:00,
2013-06-25 23:00:00,72.6,67.2,29.77,West,279,2.0,10.0,83,0.00,,,0.00,VWS V14.01,2013-06-26 03:00:00,
2013-06-25 23:05:00,72.6,67.2,29.77,West,277,0.0,1.0,83,0.00,,,0.00,VWS V14.01,2013-06-26 03:05:00,
2013-06-25 23:10:00,72.4,67.3,29.77,West,277,0.0,3.0,84,0.00,,,0.00,VWS V14.01,2013-06-26 03:10:00,
2013-06-25 23:15:00,72.3,67.2,29.76,WNW,290,0.0,3.0,84,0.00,,,0.00,VWS V14.01,2013-06-26 03:15:00,
2013-06-25 23:20:00,72.1,67.0,29.77,WNW,290,0.0,3.0,84,0.00,,,0.00,VWS V14.01,2013-06-26 03:20:00,
2013-06-25 23:25:00,71.7,67.3,29.77,WNW,290,0.0,3.0,86,0.00,,,0.00,VWS V14.01,2013-06-26 03:25:00,
2013-06-25 23:30:00,71.4,67.0,29.77,WNW,290,0.0,3.0,86,0.00,,,0.00,VWS V14.01,2013-06-26 03:30:00,
2013-06-25 23:35:00,71.3,66.9,29.77,WNW,290,0.0,0.0,86,0.00,,,0.00,VWS V14.01,2013-06-26 03:35:00,
2013-06-25 23:40:00,71.0,66.9,29.77,WNW,290,0.0,2.0,87,0.00,,,0.00,VWS V14.01,2013-06-26 03:40:00,
2013-06-25 23:45:00,71.0,66.9,29.77,WNW,288,0.0,4.0,87,0.00,,,0.00,VWS V14.01,2013-06-26 03:45:00,
2013-06-25 23:50:00,71.0,66.9,29.77,WNW,288,1.0,4.0,87,0.00,,,0.00,VWS V14.01,2013-06-26 03:50:00,
2013-06-25 23:55:00,71.0,66.9,29.77,West,262,0.0,4.0,87,0.00,,,0.00,VWS V14.01,2013-06-26 03:55:00,